| time (UTC) | temp C | wind direction | speed KPH | gust KPH | rain 1hr cm | rain 24hr cm | rain mn cm | humidity % | barometer mb |
| 20260505161532 | 26 | 209 | 3.2 | 9.7 | 0.00 | 0.00 | 0.00 | 82 | 1005.8 |
| 20260505153049 | 26 | 219 | 1.6 | 11.3 | 0.00 | 0.00 | 0.00 | 81 | 1005.9 |
| 20260505151605 | 27 | 235 | 1.6 | 14.5 | 0.00 | 0.00 | 0.00 | 80 | 1005.8 |
| 20260505124541 | 30 | 208 | 1.6 | 19.3 | 0.00 | 0.00 | 0.00 | 67 | 1005.4 |
| 20260505123055 | 31 | 185 | 4.8 | 17.7 | 0.00 | 0.00 | 0.00 | 65 | 1005.4 |
| 20260505121503 | 31 | 183 | 4.8 | 19.3 | 0.00 | 0.00 | 0.00 | 62 | 1005.6 |
| 20260505120004 | 31 | 190 | 3.2 | 20.9 | 0.00 | 0.00 | 0.00 | 63 | 1005.9 |
| 20260505114508 | 31 | 190 | 4.8 | 17.7 | 0.00 | 0.00 | 0.00 | 60 | 1006.1 |
| 20260505113004 | 31 | 167 | 3.2 | 19.3 | 0.00 | 0.00 | 0.00 | 61 | 1006.3 |
| 20260505111505 | 31 | 186 | 4.8 | 24.1 | 0.00 | 0.00 | 0.00 | 63 | 1006.4 |
| 20260505110127 | 30 | 149 | 17.7 | 27.4 | 0.00 | 0.00 | 0.00 | 61 | 1006.7 |
| 20260505101526 | 30 | 188 | 9.7 | 20.9 | 0.00 | 0.00 | 0.00 | 63 | 1008.0 |
| 20260505100107 | 30 | 194 | 8.0 | 20.9 | 0.00 | 0.00 | 0.00 | 63 | 1008.4 |
| 20260505094549 | 30 | 148 | 3.2 | 25.7 | 0.00 | 0.00 | 0.00 | 63 | 1008.5 |
| 20260505093057 | 30 | 140 | 4.8 | 20.9 | 0.00 | 0.00 | 0.00 | 64 | 1008.9 |
| 20260505091502 | 29 | 196 | 8.0 | 25.7 | 0.00 | 0.00 | 0.00 | 66 | 1009.2 |
| 20260505084602 | 28 | 139 | 14.5 | 25.7 | 0.00 | 0.00 | 0.00 | 68 | 1009.9 |
| 20260505083108 | 28 | 205 | 14.5 | 27.4 | 0.00 | 0.00 | 0.00 | 69 | 1010.2 |
| 20260505081521 | 28 | 179 | 9.7 | 24.1 | 0.00 | 0.00 | 0.00 | 69 | 1010.3 |
| 20260505080119 | 27 | 159 | 9.7 | 25.7 | 0.00 | 0.00 | 0.00 | 70 | 1010.3 |
| 20260505074557 | 27 | 143 | 17.7 | 27.4 | 0.00 | 0.00 | 0.00 | 70 | 1010.3 |
| 20260505073003 | 27 | 165 | 6.4 | 29.0 | 0.00 | 0.00 | 0.00 | 72 | 1010.3 |
| 20260505071519 | 26 | 186 | 12.9 | 24.1 | 0.00 | 0.00 | 0.00 | 73 | 1010.5 |
| 20260505070002 | 26 | 161 | 9.7 | 27.4 | 0.00 | 0.00 | 0.00 | 74 | 1010.5 |
| 20260505064511 | 26 | 150 | 8.0 | 27.4 | 0.00 | 0.00 | 0.00 | 74 | 1010.4 |
| 20260505063013 | 25 | 176 | 11.3 | 19.3 | 0.00 | 0.00 | 0.00 | 75 | 1010.4 |
| 20260505061549 | 25 | 149 | 14.5 | 24.1 | 0.00 | 0.00 | 0.00 | 75 | 1010.6 |
| 20260505060107 | 25 | 119 | 12.9 | 24.1 | 0.00 | 0.00 | 0.00 | 77 | 1010.3 |
| 20260505054558 | 23 | 144 | 12.9 | 25.7 | 0.00 | 0.00 | 0.00 | 79 | 1010.3 |
| 20260505053057 | 23 | 211 | 9.7 | 25.7 | 0.00 | 0.00 | 0.00 | 81 | 1010.2 |
| 20260505051503 | 22 | 133 | 8.0 | 19.3 | 0.00 | 0.00 | 0.00 | 82 | 1010.2 |
| 20260505041603 | 22 | 169 | 4.8 | 14.5 | 0.00 | 0.00 | 0.00 | 83 | 1010.1 |
| 20260505040109 | 22 | 183 | 3.2 | 12.9 | 0.00 | 0.00 | 0.00 | 82 | 1010.0 |
| 20260505034506 | 22 | 166 | 6.4 | 12.9 | 0.00 | 0.00 | 0.00 | 82 | 1009.9 |
| 20260505033011 | 22 | 151 | 4.8 | 14.5 | 0.00 | 0.00 | 0.00 | 81 | 1009.8 |
| 20260505031535 | 22 | 148 | 6.4 | 12.9 | 0.00 | 0.00 | 0.00 | 81 | 1009.8 |
| 20260505030101 | 22 | 138 | 4.8 | 17.7 | 0.00 | 0.00 | 0.00 | 81 | 1009.6 |
| 20260505024607 | 22 | 140 | 3.2 | 11.3 | 0.00 | 0.00 | 0.00 | 81 | 1009.3 |
| 20260505023048 | 22 | 167 | 4.8 | 14.5 | 0.00 | 0.00 | 0.00 | 81 | 1009.4 |
| 20260505021600 | 23 | 182 | 4.8 | 16.1 | 0.00 | 0.00 | 0.00 | 80 | 1009.5 |
| 20260505020116 | 23 | 118 | 8.0 | 17.7 | 0.00 | 0.00 | 0.00 | 79 | 1009.3 |
| 20260505014600 | 23 | 139 | 11.3 | 19.3 | 0.00 | 0.00 | 0.00 | 79 | 1009.4 |
| 20260505013052 | 23 | 142 | 12.9 | 25.7 | 0.00 | 0.00 | 0.00 | 78 | 1009.3 |
| 20260505011604 | 23 | 194 | 9.7 | 17.7 | 0.00 | 0.00 | 0.00 | 77 | 1009.4 |
| 20260505010112 | 24 | 155 | 11.3 | 19.3 | 0.00 | 0.00 | 0.00 | 77 | 1009.5 |
| 20260505004556 | 24 | 132 | 11.3 | 22.5 | 0.00 | 0.00 | 0.00 | 77 | 1009.7 |
| 20260505003032 | 24 | 149 | 11.3 | 17.7 | 0.00 | 0.00 | 0.00 | 76 | 1009.8 |
| 20260505001543 | 24 | 170 | 6.4 | 19.3 | 0.00 | 0.00 | 0.00 | 76 | 1009.8 |
| 20260505000044 | 25 | 144 | 9.7 | 19.3 | 0.00 | 0.00 | 0.00 | 75 | 1010.0 |
| 20260504234537 | 25 | 142 | 11.3 | 24.1 | 0.00 | 0.00 | 0.00 | 75 | 1010.0 |
| 20260504233048 | 25 | 161 | 11.3 | 22.5 | 0.00 | 0.00 | 0.00 | 74 | 1010.3 |
| 20260504231620 | 25 | 162 | 6.4 | 17.7 | 0.00 | 0.00 | 0.00 | 73 | 1010.4 |
| 20260504230052 | 25 | 130 | 9.7 | 19.3 | 0.00 | 0.00 | 0.00 | 73 | 1010.7 |
| 20260504224549 | 26 | 150 | 8.0 | 19.3 | 0.00 | 0.00 | 0.00 | 72 | 1010.7 |
| 20260504223054 | 26 | 155 | 8.0 | 20.9 | 0.00 | 0.00 | 0.00 | 72 | 1010.7 |
| 20260504221505 | 26 | 188 | 9.7 | 19.3 | 0.00 | 0.00 | 0.00 | 72 | 1010.9 |
| 20260504220120 | 26 | 162 | 6.4 | 17.7 | 0.00 | 0.00 | 0.00 | 72 | 1011.1 |
| 20260504214603 | 26 | 156 | 8.0 | 16.1 | 0.00 | 0.00 | 0.00 | 73 | 1011.3 |
| 20260504213018 | 26 | 180 | 6.4 | 17.7 | 0.00 | 0.00 | 0.00 | 73 | 1011.3 |
| 20260504211532 | 26 | 161 | 8.0 | 19.3 | 0.00 | 0.00 | 0.00 | 73 | 1011.3 |
| 20260504210047 | 26 | 184 | 11.3 | 17.7 | 0.00 | 0.00 | 0.00 | 73 | 1011.4 |
| 20260504204538 | 26 | 157 | 8.0 | 22.5 | 0.00 | 0.00 | 0.00 | 73 | 1011.4 |
| 20260504203050 | 26 | 137 | 11.3 | 24.1 | 0.00 | 0.00 | 0.00 | 72 | 1011.5 |
| 20260504201510 | 26 | 119 | 11.3 | 20.9 | 0.00 | 0.00 | 0.00 | 73 | 1011.7 |
| 20260504200034 | 26 | 182 | 6.4 | 12.9 | 0.00 | 0.00 | 0.00 | 74 | 1011.7 |
| 20260504194550 | 26 | 169 | 3.2 | 17.7 | 0.00 | 0.00 | 0.00 | 74 | 1011.7 |
| 20260504193058 | 26 | 195 | 6.4 | 17.7 | 0.00 | 0.00 | 0.00 | 74 | 1011.6 |
| 20260504191532 | 26 | 160 | 8.0 | 19.3 | 0.00 | 0.00 | 0.00 | 75 | 1011.7 |
| 20260504190006 | 26 | 193 | 8.0 | 19.3 | 0.00 | 0.00 | 0.00 | 75 | 1011.7 |
| 20260504184541 | 26 | 193 | 8.0 | 16.1 | 0.00 | 0.00 | 0.00 | 75 | 1011.9 |
| 20260504183038 | 26 | 170 | 9.7 | 17.7 | 0.00 | 0.00 | 0.00 | 76 | 1011.9 |
| 20260504181548 | 27 | 205 | 8.0 | 14.5 | 0.00 | 0.00 | 0.00 | 74 | 1011.8 |
| 20260504180103 | 27 | 192 | 6.4 | 16.1 | 0.00 | 0.00 | 0.00 | 73 | 1011.9 |
| 20260504174600 | 27 | 181 | 4.8 | 20.9 | 0.00 | 0.00 | 0.00 | 73 | 1011.9 |
| 20260504173017 | 27 | 167 | 6.4 | 17.7 | 0.00 | 0.00 | 0.00 | 73 | 1011.8 |
| 20260504171518 | 27 | 182 | 12.9 | 25.7 | 0.00 | 0.00 | 0.00 | 73 | 1011.6 |